Location: Jangalapalle
(16.8036°N, 80.6370°E)
Time: 10:33:30
(UTC+00:00)

USA 234 - Pass Details

Date: 05 August 2024
Orbit: 1100 x 1107 km, 123.0° (Epoch: 08 July)

Event Time Altitude Azimuth Distance (km) Brightness Sun altitude
Rises 21:07:58 0° 38° (NE) 3,915 7.0 -41.1°
Reaches altitude 10° 21:10:27 10° 39° (NE) 2,955 6.2 -40.7°
Enters shadow 21:14:33 42° 43° (NE) 1,511 4.2 -39.9°
